A/2019 O2

Japanese version
Home page
Updated on March 4, 2023

---------------------------------------------------------------------

* Profile

Discovery Date July 24, 2019
Magnitude 20.5 mag
Discoverer Pan-STARRS 1 telescope (Haleakala)

* Pictures

* Orbital Elements

Epoch 2023 Feb. 25.0 TT = JDT 2460000.5
T 2023 Apr. 7.30312 TT                                  Rudenko
q   9.6827888            (2000.0)            P               Q
z  +0.0172912      Peri.  129.64313     -0.39157779     -0.54006948
 +/-0.0000004      Node    48.26398     -0.76972216     -0.25136278
e   0.8325726      Incl.   93.30639     +0.50417718     -0.80320714
H    9.5
>From 311 observations 2011 Nov. 28-2023 Jan. 24, mean residual 0".3.

* Magnitudes Graph

        H = 9.2  G = 0.15

---------------------------------------------------------------------

The orbital elements are published on M.P.E.C. 2023-C45.
The magnitudes graphs are made with Comet for Windows.

---------------------------------------------------------------------

Copyright(C) Seiichi Yoshida (comet@aerith.net). All rights reserved.